Flag for United Kingdom Weather past 2 weeks in Cheltenham, England, United Kingdom

Now
64 °F

Passing clouds.


Feels Like: 64 °F
Forecast: 51 / 69 °F
Wind: 9 mph from West

Location: Staverton Private

Current Time: Aug 30, 2014 at 5:41:55 PM

Latest Report: Aug 30, 2014 at 4:50 PM


Visibility: N/A

Pressure: 30.01 "Hg

Humidity: 68%

Dew point: 54 °F

Location of CheltenhamLocation

Historic Weather in Cheltenham — Graph

°F

Cheltenham temperature yesterday

Maximum temperature yesterday: 66 °F (at 12:50 PM)
Minimum temperature yesterday: 59 °F (at 8:20 AM)
Average temperature yesterday: 63 °F

Past Weeks' High & Low Weather Summary

 TemperatureHumidityPressure
High68 °F (Aug 15, 4:50 PM)100% (Aug 25, 10:50 AM)30.18 "Hg (Aug 25, 10:50 AM)
Low46 °F (Aug 20, 6:50 AM)48% (Aug 20, 12:50 PM)29.53 "Hg (Aug 25, 5:20 PM)
Average61 °F73%29.90 "Hg
* Reported Aug 15 4:20 PM — Aug 30 4:20 PM, Cheltenham, Weather by CustomWeather, © 2014

Note: Actual official high and low records may vary slightly from our data, if they occured in-between our weather recording intervals... More about our weather records

Advertising

Cheltenham weather history for previous 24 hours

 ConditionsComfort  
Time TempWeatherWind HumidityBarometerVisibility
4:20 PM
Aug 30
66 °FPassing clouds.9 mph68%30.01 "HgN/A
3:50 PM64 °FPassing clouds.9 mph68%30.01 "HgN/A
3:20 PM64 °FPassing clouds.10 mph68%30.01 "HgN/A
2:50 PM66 °FPassing clouds.10 mph68%30.01 "HgN/A
2:20 PM66 °FPassing clouds.10 mph68%30.01 "HgN/A
1:50 PM66 °FPassing clouds.14 mph68%30.01 "HgN/A
1:20 PM66 °FScattered clouds.12 mph68%30.01 "HgN/A
12:50 PM66 °FScattered clouds.9 mph68%29.98 "HgN/A
12:20 PM64 °FScattered clouds.8 mph73%29.98 "HgN/A
11:50 AM64 °FScattered clouds.8 mph73%29.98 "HgN/A
11:20 AM63 °FScattered clouds.6 mph77%29.98 "HgN/A
10:50 AM63 °FScattered clouds.7 mph73%29.98 "HgN/A
10:20 AM61 °FScattered clouds.7 mph77%29.98 "HgN/A
9:50 AM61 °FScattered clouds.6 mph77%29.98 "HgN/A
9:20 AM59 °FPassing clouds.6 mph77%29.98 "HgN/A
8:50 AM57 °FSunny.5 mph82%29.98 "Hg10 mi
6:50 PM
Aug 29
63 °FPartly sunny.14 mph88%29.86 "HgN/A
6:20 PM63 °FScattered showers. Partly sunny.14 mph88%29.86 "HgN/A
5:50 PM63 °FScattered showers. Partly sunny.12 mph88%29.86 "HgN/A
5:20 PM64 °FScattered showers. Partly sunny.13 mph78%29.86 "HgN/A
Weather by CustomWeather, © 2014

See weather overviewHow to use our weather pages